Wind_Speed
13 12 12 11 9 9 10 11 10 9 10 11 14 15 16 15 13 10 8 5 2 3 3 5 7 8 9 9 10 12 12 13 13 13 15 15 16 16 16 18 18 18 19 19 18 19 19
14 14 14 13 12 12 11 11 11 11 12 15 15 16 17 14 11 7 4 2 3 5 6 8 9 10 12 13 14 16 17 18 18 18 18 19 20 21 21 22 22 23 23 22 22 23 21
17 16 15 14 13 13 13 12 13 13 14 16 18 17 13 10 7 4 4 4 5 7 9 13 14 14 15 17 20 20 20 22 22 23 24 25 25 25 26 28 28 27 27 26 25 25 24
16 16 16 16 15 13 14 13 14 15 17 17 16 12 9 9 5 5 6 7 9 11 15 17 19 20 21 23 24 24 24 24 25 27 29 28 29 31 31 32 31 30 29 28 27 27 27
16 16 16 16 16 14 14 14 14 15 17 16 13 12 10 7 6 7 9 10 13 15 17 20 22 25 26 26 27 27 29 31 32 31 31 32 31 33 34 34 34 31 33 31 30 31 32
15 17 18 17 16 16 16 16 16 16 16 14 12 10 9 7 8 10 11 13 16 19 23 26 27 29 30 31 29 30 32 34 34 35 35 34 34 34 34 33 33 33 34 34 33 34 36
16 16 17 17 17 16 15 16 17 17 15 13 10 9 10 12 12 13 15 18 21 24 28 30 34 34 32 31 32 32 29 28 30 32 33 33 33 32 32 33 33 34 35 35 35 38 40
16 16 17 17 19 18 17 18 17 14 15 12 11 12 14 14 16 17 20 23 25 29 32 29 28 28 27 28 26 23 23 23 26 28 29 28 28 29 31 33 35 36 38 38 40 42 44
19 18 19 20 20 21 20 19 16 17 17 16 15 15 15 17 19 23 25 27 30 31 27 26 26 26 23 22 22 22 22 23 24 25 26 27 29 32 35 36 38 40 42 43 46 47 48
21 21 21 22 22 22 22 21 20 20 19 18 17 16 17 20 22 26 30 30 27 25 25 24 21 21 21 21 21 22 24 25 27 27 30 32 36 39 40 40 43 46 46 49 50 52 53
21 22 23 25 24 24 23 22 22 19 18 17 18 20 21 21 26 28 24 23 24 26 27 23 24 22 21 21 22 24 26 29 31 32 34 38 42 45 45 45 47 50 52 53 54 55 57
23 23 25 26 26 26 25 23 20 18 19 19 21 22 22 27 29 25 25 25 26 25 27 24 22 22 24 25 27 28 30 32 35 37 40 42 46 49 51 53 54 57 58 58 58 60 66
24 26 26 27 27 27 24 22 20 20 21 22 23 23 27 29 27 25 25 25 26 25 26 24 25 27 28 29 31 32 35 38 40 43 43 46 50 51 53 57 58 60 60 61 62 63 65
26 26 27 27 28 29 26 24 24 23 23 23 23 26 30 28 27 27 27 25 25 27 26 28 29 31 32 34 35 36 40 44 44 46 50 52 54 56 59 63 64 63 62 62 59 64 64
25 25 26 26 28 28 28 27 26 24 23 23 25 30 30 31 29 27 27 26 28 29 29 31 32 35 36 37 40 43 47 49 49 51 53 56 55 58 62 64 65 65 65 66 65 67 67
26 27 27 25 27 28 29 28 27 25 24 26 28 30 31 30 28 27 29 29 31 31 32 34 37 40 41 42 46 48 53 54 55 56 57 60 60 61 62 67 67 68 67 68 68 67 70
32 30 28 27 27 28 29 30 29 26 27 28 31 31 29 29 31 30 31 32 33 33 35 38 40 44 47 48 49 52 55 56 55 56 57 60 64 63 68 72 73 72 70 70 68 70 63
34 33 29 29 30 30 30 30 30 30 29 31 32 34 34 34 32 32 33 35 35 36 39 42 46 49 50 52 55 56 53 54 57 60 63 67 72 74 72 74 76 77 76 75 75 71 69
38 38 34 31 33 33 32 31 32 31 32 35 37 35 35 35 32 34 35 36 38 41 44 47 50 51 54 54 52 53 56 60 63 67 71 73 77 79 78 76 80 79 77 74 67 68 75
41 41 40 38 36 35 34 34 33 32 33 36 38 36 35 35 34 35 37 38 42 45 48 51 53 55 54 53 55 59 62 66 69 71 73 76 76 78 77 75 76 74 71 67 65 59 58
43 45 45 44 40 38 38 37 36 37 35 38 39 37 37 36 36 37 40 42 46 49 51 54 55 54 53 56 59 63 66 68 71 73 75 76 74 74 68 63 55 52 49 46 45 46 47
42 40 43 48 48 43 42 40 41 38 38 40 40 37 37 37 39 41 43 45 49 51 55 54 54 55 58 60 64 67 69 71 73 75 73 72 66 61 46 42 41 41 38 36 36 34 32
43 42 34 35 39 46 49 46 41 38 38 39 37 36 38 39 40 42 45 48 51 54 53 54 56 58 61 65 67 69 71 73 71 68 66 57 49 43 40 38 35 35 32 27 24 25 26
32 35 38 39 43 45 44 47 43 38 37 36 36 37 39 38 41 44 47 50 53 52 54 56 58 62 64 67 70 71 72 67 65 57 47 42 41 40 39 35 33 27 25 23 25 27 29
34 34 36 39 42 45 44 42 41 39 38 39 39 39 38 39 43 45 49 51 52 55 57 59 62 65 67 70 71 68 65 60 49 40 37 37 37 37 33 31 30 25 20 24 34 30 28
30 36 38 40 42 42 42 42 41 37 38 40 39 38 38 40 44 48 50 51 54 57 60 63 65 67 70 72 68 64 55 42 36 36 35 35 34 31 27 26 27 27 26 31 30 31 36
30 31 36 33 35 36 38 36 41 39 36 36 38 37 37 42 47 49 50 54 57 60 63 65 68 70 72 68 63 52 38 33 33 33 33 31 28 26 25 25 27 21 22 28 28 28 29
26 29 32 30 32 36 37 33 36 35 34 36 34 35 40 45 48 50 53 56 59 61 65 69 72 70 67 59 47 35 30 32 33 32 29 27 25 23 22 23 26 26 25 29 35 39 39
33 32 30 27 27 25 26 28 31 32 32 29 33 39 44 46 49 52 55 59 62 66 70 73 71 67 56 42 35 28 31 33 33 31 26 25 22 21 23 26 30 31 31 37 34 33 31
Wind_Direction
228 236 244 256 264 269 275 281 290 295 300 303 307 308 307 303 305 305 300 299 328 339 339 336 336 337 328 322 316 316 308 297 292 287 281 279 274 269 269 269 265 260 257 257 257 258 261
230 235 242 251 263 272 277 283 290 291 298 308 308 308 303 298 298 296 280 255 307 313 315 318 319 318 313 314 311 308 305 300 293 288 282 281 278 274 273 271 267 263 263 262 263 264 260
228 233 242 249 258 267 275 283 283 288 302 304 308 306 302 296 295 271 235 272 294 298 302 307 311 312 308 306 307 302 301 300 295 293 293 286 283 280 278 277 273 269 268 269 270 269 269
236 239 244 250 254 259 267 274 284 296 300 303 303 299 291 287 267 244 249 269 290 300 308 312 312 311 308 304 302 300 298 296 295 294 293 289 285 284 285 280 274 272 272 268 266 265 266
253 248 244 246 254 262 264 277 286 294 298 300 295 285 282 266 252 263 280 290 296 302 305 306 307 305 303 302 300 299 299 297 295 293 290 289 287 286 284 279 274 274 273 268 268 270 271
253 253 246 241 244 255 266 279 283 287 289 288 285 275 272 264 263 271 278 289 295 299 301 303 303 302 301 301 299 297 298 297 295 293 290 290 290 285 280 277 276 274 274 273 273 272 271
244 246 252 250 248 250 261 272 281 288 284 282 270 258 259 261 267 278 289 293 295 297 299 300 300 301 301 301 300 300 300 298 295 293 290 289 289 284 281 278 276 277 278 277 277 278 277
250 251 252 254 259 260 260 266 272 274 278 271 256 260 267 274 280 286 289 291 295 298 298 297 299 300 302 301 301 303 302 302 301 300 297 293 289 286 284 284 283 282 280 281 281 280 280
253 252 255 257 259 264 267 274 272 272 271 258 262 267 273 282 287 290 294 295 299 301 300 303 302 301 302 302 303 303 304 302 301 300 297 291 288 287 289 289 287 283 282 281 282 282 281
259 262 260 264 267 272 276 276 272 273 272 266 271 278 281 285 292 297 298 300 302 303 303 309 310 310 308 308 310 313 309 304 299 297 293 290 288 287 286 285 282 282 281 280 280 280 281
254 260 266 271 273 272 275 276 279 275 268 274 279 282 284 289 297 302 301 301 304 305 305 308 312 313 316 319 318 314 307 302 298 296 294 292 289 286 286 285 284 283 283 282 282 281 279
259 260 263 265 269 277 281 276 271 264 268 273 274 279 282 294 299 297 297 301 304 304 306 308 312 315 317 319 316 313 306 302 298 298 297 294 291 289 288 287 286 285 285 284 283 282 280
261 264 265 267 266 269 270 268 262 267 270 272 274 277 289 298 296 294 300 302 308 305 307 309 312 314 315 314 311 307 307 305 302 301 299 296 293 291 287 286 285 285 286 285 282 282 283
263 269 270 269 270 270 268 265 267 269 270 273 275 283 292 292 290 294 301 306 305 302 307 311 314 311 312 311 307 307 306 305 303 300 298 296 295 291 290 289 289 289 288 287 288 285 284
266 270 275 273 268 269 270 270 272 272 271 273 280 290 291 291 291 294 300 303 303 305 307 309 309 308 309 307 307 306 305 303 302 299 296 295 294 292 290 290 290 289 289 288 288 287 284
264 269 273 272 271 270 271 274 272 267 265 276 286 292 294 293 290 294 298 302 304 305 306 307 308 308 308 308 306 305 304 304 302 300 297 296 294 293 291 290 289 290 291 290 288 284 282
266 268 272 276 274 272 272 273 272 264 268 279 287 292 296 293 292 295 300 303 304 304 305 308 308 306 306 307 307 306 305 303 301 298 296 294 292 294 292 291 291 289 288 284 283 281 278
261 266 265 270 275 273 272 271 270 266 270 278 286 291 293 296 292 296 299 301 304 305 306 308 308 307 308 308 306 304 304 302 300 298 296 295 294 293 292 291 291 290 288 286 281 278 275
260 267 266 261 270 271 273 272 270 269 277 284 284 291 292 296 292 296 300 304 306 307 308 308 307 308 308 306 304 305 303 302 301 299 299 299 296 296 295 293 290 288 287 285 281 279 279
263 267 269 269 262 269 274 274 272 270 281 286 287 290 292 295 293 297 300 303 303 306 307 308 308 308 307 307 306 305 304 303 302 301 300 300 299 296 295 292 288 286 283 281 278 275 267
260 268 268 267 261 259 268 271 276 277 280 286 287 287 290 295 297 298 302 303 305 306 308 309 309 307 306 306 305 305 305 303 303 303 302 301 298 295 295 294 293 291 289 286 281 280 278
266 265 272 265 264 258 260 262 272 274 281 285 286 287 292 296 298 301 303 304 306 308 309 307 306 306 307 306 305 305 305 305 304 304 302 300 298 297 298 298 296 295 297 294 292 289 283
268 259 267 265 274 267 258 262 268 271 275 287 286 285 290 296 297 301 302 304 306 308 308 306 307 307 306 307 307 307 307 306 306 304 301 300 301 303 306 304 304 301 300 293 282 291 292
263 261 260 264 266 269 274 262 267 269 274 284 286 288 292 293 298 300 301 305 308 307 306 306 307 307 307 308 308 309 309 308 305 303 302 303 307 310 312 309 308 306 303 291 284 292 287
261 264 265 262 260 266 268 264 259 265 274 279 286 288 291 296 299 300 304 305 305 305 306 307 307 307 308 310 311 310 309 306 304 306 309 311 311 311 311 308 310 314 305 276 283 277 290
260 264 264 260 259 260 262 266 264 267 276 278 281 287 292 297 299 304 303 303 305 305 306 307 307 310 312 312 313 311 307 307 308 309 311 309 310 309 308 306 307 314 304 303 302 304 283
266 269 262 265 260 255 258 266 267 269 274 275 283 290 293 297 301 300 302 304 305 306 307 309 312 313 314 315 312 309 306 307 310 311 309 310 311 310 305 301 309 314 309 304 305 309 305
262 264 259 260 260 262 260 269 270 273 274 281 289 293 297 298 298 301 304 305 307 309 311 313 314 315 314 311 308 307 308 312 312 312 311 311 309 309 308 311 311 311 306 302 306 304 302
258 262 261 269 268 264 267 267 272 276 279 288 293 296 296 299 302 304 306 309 311 312 314 315 315 316 312 305 304 305 310 312 312 313 311 309 306 307 308 312 311 312 308 312 313 312 310
Height
5818 5820 5821 5823 5823 5824 5824 5824 5824 5823 5822 5822 5821 5819 5818 5816 5815 5814 5813 5812 5812 5811 5811 5810 5810 5809 5808 5807 5806 5804 5803 5801 5800 5799 5798 5797 5796 5795 5793 5793 5791 5790 5788 5787 5787 5786 5786
5815 5816 5818 5819 5820 5822 5822 5822 5822 5821 5820 5819 5817 5816 5814 5813 5812 5812 5811 5811 5811 5810 5810 5809 5808 5807 5806 5805 5803 5802 5800 5799 5797 5796 5795 5794 5793 5792 5791 5789 5787 5785 5784 5783 5782 5780 5779
5811 5813 5814 5816 5817 5818 5819 5819 5819 5818 5817 5816 5814 5813 5811 5810 5810 5809 5810 5810 5809 5808 5808 5807 5806 5805 5804 5803 5800 5798 5797 5795 5793 5792 5791 5789 5788 5787 5785 5784 5782 5781 5780 5779 5777 5775 5774
5810 5811 5812 5813 5814 5814 5815 5815 5815 5815 5814 5812 5811 5810 5809 5808 5807 5807 5807 5807 5806 5805 5805 5803 5802 5801 5800 5797 5795 5793 5792 5790 5789 5787 5785 5784 5782 5781 5779 5777 5776 5775 5774 5772 5771 5769 5768
5809 5808 5808 5809 5811 5812 5811 5811 5811 5810 5810 5809 5808 5807 5806 5805 5805 5805 5805 5804 5803 5802 5801 5799 5798 5795 5793 5791 5790 5788 5786 5784 5783 5781 5778 5777 5776 5774 5772 5769 5769 5769 5766 5766 5765 5763 5761
5805 5806 5805 5804 5805 5807 5808 5808 5807 5806 5805 5804 5804 5804 5804 5803 5803 5803 5801 5800 5799 5798 5796 5794 5793 5791 5788 5785 5783 5781 5780 5778 5776 5773 5772 5770 5769 5766 5764 5762 5762 5760 5759 5758 5757 5756 5753
5800 5801 5803 5804 5802 5801 5803 5804 5803 5802 5801 5800 5800 5800 5800 5800 5799 5799 5798 5797 5796 5795 5791 5789 5785 5782 5780 5779 5777 5775 5772 5770 5768 5766 5764 5763 5761 5759 5758 5756 5755 5753 5751 5749 5748 5745 5745
5799 5800 5801 5801 5801 5800 5798 5797 5797 5798 5799 5798 5797 5797 5797 5796 5796 5795 5794 5792 5790 5788 5785 5782 5779 5777 5775 5772 5770 5768 5766 5764 5762 5760 5758 5756 5755 5753 5751 5749 5748 5746 5743 5742 5740 5736 5734
5796 5796 5797 5797 5797 5797 5795 5795 5795 5794 5794 5793 5793 5793 5792 5792 5792 5791 5789 5786 5784 5781 5778 5777 5773 5771 5768 5766 5763 5761 5760 5757 5755 5753 5752 5751 5749 5747 5744 5742 5740 5736 5734 5731 5728 5725 5722
5793 5794 5793 5794 5794 5794 5793 5792 5790 5790 5790 5790 5789 5789 5789 5788 5788 5785 5782 5779 5777 5775 5773 5771 5767 5765 5762 5760 5758 5756 5753 5752 5750 5748 5746 5745 5742 5739 5736 5733 5728 5726 5724 5719 5716 5712 5709
5787 5788 5789 5789 5790 5789 5788 5788 5787 5787 5787 5787 5787 5786 5785 5783 5781 5778 5776 5773 5772 5770 5767 5765 5762 5759 5756 5755 5752 5750 5747 5745 5744 5742 5740 5738 5733 5729 5726 5722 5718 5714 5710 5707 5703 5698 5694
5783 5783 5784 5783 5784 5784 5784 5783 5781 5781 5782 5781 5780 5780 5778 5777 5775 5773 5770 5768 5766 5765 5761 5759 5756 5753 5751 5748 5745 5743 5741 5738 5736 5734 5731 5728 5723 5718 5715 5710 5704 5699 5695 5690 5687 5682 5676
5777 5778 5778 5778 5778 5778 5777 5777 5776 5776 5776 5775 5774 5773 5772 5770 5769 5767 5765 5763 5762 5758 5756 5753 5749 5746 5743 5740 5738 5735 5731 5728 5726 5723 5721 5717 5712 5707 5702 5697 5691 5686 5681 5673 5667 5663 5661
5771 5772 5772 5772 5772 5773 5772 5771 5771 5770 5770 5769 5769 5767 5766 5764 5762 5761 5759 5757 5754 5751 5748 5745 5742 5738 5735 5732 5729 5725 5721 5717 5715 5711 5707 5704 5701 5693 5687 5680 5674 5670 5664 5656 5644 5646 5644
5765 5765 5765 5765 5766 5766 5767 5766 5765 5764 5764 5764 5762 5762 5760 5757 5755 5754 5752 5749 5746 5744 5741 5737 5734 5730 5727 5723 5719 5714 5710 5706 5702 5698 5693 5687 5688 5681 5671 5664 5658 5652 5645 5639 5627 5625 5617
5758 5758 5758 5757 5758 5760 5760 5760 5759 5758 5758 5757 5756 5754 5752 5751 5748 5746 5745 5741 5738 5735 5731 5728 5725 5721 5715 5711 5706 5701 5696 5693 5688 5683 5678 5671 5668 5666 5659 5648 5642 5633 5628 5621 5614 5601 5596
5752 5752 5751 5751 5752 5752 5753 5753 5753 5752 5751 5750 5749 5747 5745 5743 5742 5739 5736 5733 5730 5726 5723 5719 5714 5709 5705 5700 5695 5689 5683 5678 5672 5666 5661 5654 5650 5656 5642 5627 5621 5617 5609 5599 5590 5588 5579
5743 5745 5744 5744 5745 5744 5745 5745 5745 5745 5743 5743 5741 5739 5737 5735 5733 5730 5727 5723 5721 5716 5712 5708 5703 5698 5692 5686 5681 5675 5670 5663 5657 5651 5644 5635 5624 5624 5630 5613 5600 5592 5582 5576 5568 5564 5559
5735 5736 5737 5737 5737 5738 5737 5736 5737 5737 5736 5735 5733 5730 5729 5726 5724 5721 5718 5715 5711 5707 5701 5697 5691 5686 5680 5674 5666 5662 5655 5648 5640 5632 5623 5616 5601 5593 5599 5597 5578 5568 5561 5551 5540 5535 5536
5726 5728 5728 5729 5729 5729 5729 5729 5729 5728 5727 5726 5725 5721 5720 5717 5714 5712 5708 5705 5700 5695 5690 5684 5679 5673 5667 5661 5654 5645 5638 5630 5621 5612 5603 5594 5586 5573 5566 5561 5551 5548 5541 5532 5521 5516 5517
5717 5718 5718 5720 5720 5720 5720 5720 5720 5719 5718 5717 5714 5712 5711 5708 5705 5702 5698 5694 5689 5684 5678 5673 5667 5660 5654 5646 5639 5631 5622 5612 5600 5591 5581 5575 5565 5552 5544 5534 5529 5521 5515 5511 5507 5500 5496
5705 5706 5708 5708 5710 5710 5710 5710 5710 5710 5709 5708 5705 5704 5701 5699 5695 5692 5687 5683 5678 5672 5667 5661 5653 5647 5640 5632 5623 5613 5605 5594 5585 5571 5562 5549 5542 5533 5528 5521 5514 5507 5503 5498 5492 5488 5486
5694 5695 5696 5697 5699 5698 5699 5699 5700 5700 5699 5697 5695 5694 5691 5689 5685 5682 5676 5670 5665 5660 5655 5647 5640 5632 5624 5616 5606 5595 5585 5574 5564 5554 5541 5532 5524 5517 5516 5508 5503 5497 5493 5487 5483 5478 5474
5683 5685 5685 5685 5687 5688 5688 5690 5690 5690 5689 5688 5686 5684 5681 5678 5674 5670 5664 5659 5652 5647 5640 5634 5627 5618 5610 5600 5589 5577 5565 5555 5543 5533 5527 5519 5511 5505 5501 5496 5493 5487 5482 5478 5474 5471 5466
5673 5674 5674 5675 5676 5676 5676 5678 5678 5677 5677 5677 5676 5674 5670 5667 5663 5658 5653 5646 5640 5634 5627 5619 5612 5604 5593 5583 5572 5560 5548 5538 5528 5519 5512 5506 5502 5496 5492 5487 5484 5479 5475 5471 5466 5465 5460
5662 5662 5662 5663 5665 5666 5668 5669 5669 5667 5667 5667 5665 5662 5659 5656 5652 5647 5641 5635 5628 5620 5612 5604 5595 5586 5576 5565 5553 5543 5533 5526 5518 5509 5505 5498 5493 5489 5485 5480 5476 5474 5469 5464 5459 5455 5451
5653 5652 5654 5654 5655 5657 5658 5658 5658 5658 5658 5657 5655 5652 5650 5646 5641 5636 5629 5622 5614 5606 5597 5587 5578 5568 5557 5546 5536 5528 5523 5516 5511 5505 5498 5491 5485 5481 5477 5474 5471 5467 5463 5458 5454 5452 5443
5644 5645 5646 5647 5646 5647 5648 5649 5651 5650 5649 5648 5645 5643 5640 5635 5630 5624 5617 5609 5600 5590 5580 5570 5559 5548 5538 5529 5520 5516 5511 5506 5502 5496 5490 5485 5480 5476 5472 5468 5465 5460 5456 5451 5447 5439 5432
5636 5637 5637 5637 5639 5639 5641 5642 5643 5642 5640 5639 5637 5634 5629 5624 5619 5611 5603 5595 5585 5574 5564 5552 5542 5531 5521 5514 5508 5504 5503 5498 5493 5488 5483 5478 5475 5471 5468 5463 5457 5451 5447 5442 5435 5429 5424